Frankfort, KY

1:21 PM EDT on June 23, 2017 (GMT -0400)
Capital City

Weather History for KFFT - February, 2013

Change the Weather History Date:

Thursday, February 7, 2013

  Actual Average Record
Temperature  
Mean Temperature 49 °F 35 °F  
Max Temperature 64 °F 44 °F 69 °F (1925)
Min Temperature 34 °F 25 °F -6 °F (1978)
Degree Days  
Heating Degree Days 16 30  
Month to date heating degree days 239 215  
Since 1 July heating degree days 2942 3053  
Cooling Degree Days 0 0  
Month to date cooling degree days 0 0  
Year to date cooling degree days 0 0  
Moisture  
Dew Point 34 °F    
Average Humidity 63    
Maximum Humidity 89    
Minimum Humidity 36    
Precipitation  
Precipitation 0.00 in 0.11 in 0.85 in (1965)
Month to date precipitation 0.19 0.78  
Year to date precipitation 5.19 4.04  
Sea Level Pressure  
Sea Level Pressure 30.02 in    
Wind  
Wind Speed 5 mph (SSE)    
Max Wind Speed 14 mph    
Max Gust Speed 16 mph    
Visibility 9 miles    
Events      
T = Trace of Precipitation, MM = Missing Value Source: NWS Daily Summary

Daily Weather History Graph

Daily Weather History Graph

Search for Another Location

Airport or City:

Trip Planner

Search our weather history database for the weather conditions in past years. The results will help you decide how hot, cold, wet, or windy it might be!

Date:

Astronomy

Feb. 07, 2013 Rise Set
Actual Time 7:38 AM EST 6:09 PM EST
Civil Twilight 7:11 AM EST 6:36 PM EST
Nautical Twilight 6:39 AM EST 7:08 PM EST
Astronomical Twilight 6:09 AM EST 7:39 PM EST
Moon 5:15 AM EST (2/7) 3:34 PM EST (2/7)
Length of Visible Light 11h 25m
Length of Day
10h 31m
Waning Crescent, 9% of the Moon is Illuminated
Feb 7
Waning Crescent
Feb 10
New
Feb 17
First Quarter
Feb 25
Full
Mar 4
Last Quarter

Hourly Weather History & Observations

Time (EST) Temp. Windchill Dew Point Humidity Pressure Visibility Wind Dir Wind Speed Gust Speed Precip Events Conditions
12:53 AM 34.0 °F 28.8 °F 30.0 °F 85% 30.18 in 7.0 mi ENE 5.8 mph - N/A   Clear
1:53 AM 35.1 °F 30.1 °F 30.0 °F 82% 30.16 in 7.0 mi East 5.8 mph - N/A   Clear
2:53 AM 35.1 °F 31.0 °F 30.0 °F 82% 30.15 in 7.0 mi East 4.6 mph - N/A   Clear
3:53 AM 35.1 °F - 30.0 °F 82% 30.15 in 7.0 mi Calm Calm - N/A   Clear
4:53 AM 35.1 °F - 30.0 °F 82% 30.15 in 7.0 mi Calm Calm - N/A   Clear
5:53 AM 34.0 °F - 30.9 °F 89% 30.14 in 7.0 mi Calm Calm - N/A   Clear
6:53 AM 35.1 °F 30.1 °F 30.9 °F 85% 30.12 in 7.0 mi ESE 5.8 mph - N/A   Mostly Cloudy
7:53 AM 36.0 °F - 30.9 °F 82% 30.11 in 6.0 mi Calm Calm - N/A   Haze
8:53 AM 39.0 °F - 32.0 °F 76% 30.11 in 7.0 mi Calm Calm - N/A   Partly Cloudy
9:53 AM 44.1 °F 40.8 °F 33.1 °F 65% 30.09 in 10.0 mi ESE 5.8 mph - N/A   Scattered Clouds
10:53 AM 50.0 °F - 32.0 °F 50% 30.08 in 10.0 mi SSE 9.2 mph - N/A   Clear
11:53 AM 53.1 °F - 33.1 °F 47% 30.06 in 2.0 mi SSE 5.8 mph - N/A   Haze
12:06 PM 53.6 °F - 33.8 °F 47% 30.05 in 10.0 mi SSE 5.8 mph - N/A   Clear
12:53 PM 57.0 °F - 34.0 °F 42% 30.01 in 10.0 mi Variable 3.5 mph - N/A   Clear
1:53 PM 60.1 °F - 35.1 °F 39% 29.97 in 10.0 mi Variable 4.6 mph - N/A   Clear
2:53 PM 63.0 °F - 36.0 °F 37% 29.95 in 10.0 mi SW 9.2 mph - N/A   Clear
3:53 PM 63.0 °F - 37.0 °F 38% 29.93 in 10.0 mi SW 8.1 mph - N/A   Clear
4:53 PM 62.1 °F - 37.9 °F 41% 29.91 in 10.0 mi SSW 8.1 mph - N/A   Clear
5:53 PM 59.0 °F - 37.0 °F 44% 29.90 in 10.0 mi South 5.8 mph - N/A   Clear
6:53 PM 55.9 °F - 36.0 °F 47% 29.91 in 10.0 mi South 5.8 mph - N/A   Clear
7:53 PM 54.0 °F - 36.0 °F 51% 29.91 in 10.0 mi South 8.1 mph - N/A   Clear
8:53 PM 51.1 °F - 35.1 °F 54% 29.89 in 10.0 mi South 8.1 mph - N/A   Clear
9:53 PM 51.1 °F - 34.0 °F 52% 29.89 in 10.0 mi South 8.1 mph - N/A   Clear
10:53 PM 50.0 °F - 35.1 °F 57% 29.87 in 10.0 mi South 9.2 mph - N/A   Clear
11:53 PM 48.0 °F - 37.9 °F 68% 29.86 in 10.0 mi South 8.1 mph - N/A   Scattered Clouds